GW6664 Weather Reports


Display with metric or nautical units.
time (UTC)temp
F
wind
direction
speed
MPH
gust
MPH
rain 1hr
in
rain 24hr
in
rain mn
in
humidity
%
barometer
mb
20260502200036 96 111 0.0 6.0 0.00 0.00 0.00 8 1010.9
20260502194534 96 104 1.0 6.0 0.00 0.00 0.00 8 1011.1
20260502193035 97 82 1.0 4.0 0.00 0.00 0.00 8 1011.4
20260502191544 96 0 1.0 5.0 0.00 0.00 0.00 8 1011.4
20260502190037 96 8 1.0 6.0 0.00 0.00 0.00 8 1011.4
20260502184545 95 6 2.0 5.0 0.00 0.00 0.00 8 1011.6
20260502183037 94 57 1.0 5.0 0.00 0.00 0.00 9 1011.8
20260502181540 95 138 1.0 7.0 0.00 0.00 0.00 9 1012.0
20260502163037 89 77 0.0 2.0 0.00 0.00 0.00 16 1012.3
20260502161535 88 0 0.0 2.0 0.00 0.00 0.00 17 1012.3
20260502151535 85 0 0.0 1.0 0.00 0.00 0.00 20 1012.1
20260502123043 74 0 0.0 3.0 0.00 0.00 0.00 26 1010.8
20260502121540 75 206 0.0 3.0 0.00 0.00 0.00 26 1010.8
20260502114537 78 216 7.0 10.0 0.00 0.00 0.00 22 1010.4
20260502113038 77 216 4.0 8.0 0.00 0.00 0.00 22 1010.6
20260502111538 78 253 5.0 11.0 0.00 0.00 0.00 22 1010.5
20260502110036 78 231 6.0 10.0 0.00 0.00 0.00 22 1010.5
20260502104540 78 215 4.0 7.0 0.00 0.00 0.00 22 1010.4
20260502103038 78 206 5.0 8.0 0.00 0.00 0.00 22 1010.3
20260502101537 78 214 6.0 9.0 0.00 0.00 0.00 23 1010.3
20260502071536 81 207 4.0 11.0 0.00 0.00 0.00 22 1010.6
20260502070035 80 205 5.0 11.0 0.00 0.00 0.00 23 1010.5
20260502064534 80 250 7.0 12.0 0.00 0.00 0.00 24 1010.7
20260502063035 80 233 6.0 11.0 0.00 0.00 0.00 25 1010.7
20260502061538 80 243 6.0 12.0 0.00 0.00 0.00 25 1010.7
20260502060035 80 238 7.0 13.0 0.00 0.00 0.00 26 1010.5
20260502054538 81 243 7.0 16.0 0.00 0.00 0.00 26 1010.4
20260502053036 81 250 5.0 13.0 0.00 0.00 0.00 26 1010.3
20260502051539 81 217 8.0 14.0 0.00 0.00 0.00 26 1010.4
20260502050039 81 224 9.0 16.0 0.00 0.00 0.00 26 1010.3
20260502044535 82 236 5.0 13.0 0.00 0.00 0.00 27 1010.1
20260502043037 82 216 8.0 17.0 0.00 0.00 0.00 27 1010.0
20260502041532 82 237 9.0 21.0 0.00 0.00 0.00 29 1009.7
20260502040035 82 225 13.0 20.0 0.00 0.00 0.00 30 1009.5
20260502034536 82 213 12.0 21.0 0.00 0.00 0.00 31 1009.3
20260502033044 83 223 11.0 19.0 0.00 0.00 0.00 29 1009.2
20260502031535 83 195 12.0 20.0 0.00 0.00 0.00 28 1008.9
20260502030039 83 238 9.0 20.0 0.00 0.00 0.00 29 1008.7
20260502024533 84 243 10.0 19.0 0.00 0.00 0.00 27 1008.5
20260502023032 85 213 11.0 19.0 0.00 0.00 0.00 26 1008.5
20260502021535 85 236 9.0 16.0 0.00 0.00 0.00 26 1008.2
20260502020035 86 240 9.0 15.0 0.00 0.00 0.00 27 1008.1
20260502014534 87 241 10.0 18.0 0.00 0.00 0.00 24 1007.9
20260502013037 88 250 9.0 17.0 0.00 0.00 0.00 22 1008.0
20260502011534 89 266 10.0 16.0 0.00 0.00 0.00 21 1008.0
20260502010040 90 278 9.0 16.0 0.00 0.00 0.00 21 1008.0
20260502004550 90 275 11.0 17.0 0.00 0.00 0.00 20 1007.8
20260502003034 92 281 8.0 14.0 0.00 0.00 0.00 20 1007.8
20260502001532 93 26 4.0 14.0 0.00 0.00 0.00 16 1007.9
20260502000050 95 248 4.0 8.0 0.00 0.00 0.00 16 1007.7
20260501234537 96 101 0.0 5.0 0.00 0.00 0.00 15 1008.1
20260501233040 94 89 0.0 4.0 0.00 0.00 0.00 12 1008.0
20260501231540 92 104 0.0 2.0 0.00 0.00 0.00 13 1008.2
20260501230034 92 95 1.0 4.0 0.00 0.00 0.00 13 1008.3
20260501224534 92 96 0.0 3.0 0.00 0.00 0.00 13 1008.4
20260501223038 94 89 1.0 5.0 0.00 0.00 0.00 12 1008.7
20260501221536 92 0 1.0 5.0 0.00 0.00 0.00 13 1008.9
20260501220049 93 0 1.0 6.0 0.00 0.00 0.00 13 1009.0
20260501214534 97 0 1.0 4.0 0.00 0.00 0.00 11 1009.4
20260501213051 96 42 1.0 3.0 0.00 0.00 0.00 12 1009.5
20260501211537 94 222 0.0 5.0 0.00 0.00 0.00 12 1009.7
20260501210037 92 96 1.0 6.0 0.00 0.00 0.00 13 1010.0
20260501204535 95 294 2.0 7.0 0.00 0.00 0.00 12 1010.1
20260501203035 96 64 1.0 5.0 0.00 0.00 0.00 13 1010.2
20260501201535 97 13 1.0 5.0 0.00 0.00 0.00 13 1010.3